Weather History for Gilze-Rijen, Netherlands

Change the Weather History Date:

Saturday, May 25, 2013

  Actual Average Record
Temperature  
Mean Temperature 47 °F -  
Max Temperature 57 °F 67 °F 77 °F (2007)
Min Temperature 37 °F 49 °F 37 °F (2004)
Degree Days  
Heating Degree Days 18    
Moisture  
Dew Point 41 °F    
Average Humidity 76    
Maximum Humidity 93    
Minimum Humidity 55    
Precipitation  
Precipitation 0.00 in - - ()
Sea Level Pressure  
Sea Level Pressure 30.00 in    
Wind  
Wind Speed 9 mph ()    
Max Wind Speed 17 mph    
Max Gust Speed -    
Visibility 6.1 miles    
Events Rain    
Averages and records for this station are not official NWS values.
T = Trace of Precipitation, MM = Missing Value Source: Averaged Metar Reports

Daily Weather History Graph

Daily Weather History Graph

Search for Another Location

Airport:

Trip Planner

Search our weather history database for the weather conditions in past years. The results will help you decide how hot, cold, wet, or windy it might be!

Date:

Astronomy

May. 25, 2013 Rise Set
Actual Time 5:35 AM CEST 9:40 PM CEST
Civil Twilight 4:51 AM CEST 10:24 PM CEST
Nautical Twilight 3:48 AM CEST 11:27 PM CEST
Astronomical Twilight 2:09 AM CEST 1:04 AM CEST
Moon 10:09 PM CEST (5/25) 5:50 AM CEST (5/25)
Length of Visible Light 17h 33m
Length of Day
16h 05m
Full, 100% of the Moon is Illuminated
May 25
Full
May 31
Last Quarter
Jun 8
New
Jun 16
First Quarter
Jun 23
Full

Hourly Weather History & Observations

Time (CEST) Temp. Windchill Dew Point Humidity Pressure Visibility Wind Dir Wind Speed Gust Speed Precip Events Conditions
12:25 AM 46.4 °F 42.4 °F 41.0 °F 81% 29.95 in 6.2 mi North 8.1 mph - N/A   Overcast
12:55 AM 44.6 °F 40.7 °F 39.2 °F 81% 29.95 in 6.2 mi North 6.9 mph - N/A   Partly Cloudy
1:25 AM 42.8 °F 38.6 °F 39.2 °F 87% 29.95 in 6.2 mi NNE 6.9 mph - N/A   Scattered Clouds
1:55 AM 42.8 °F 38.6 °F 37.4 °F 81% 29.95 in 6.2 mi NNE 6.9 mph - N/A   Unknown
2:25 AM 42.8 °F 38.6 °F 37.4 °F 81% 29.95 in 6.2 mi NNE 6.9 mph - N/A   Overcast
2:55 AM 41.0 °F 37.1 °F 37.4 °F 87% 29.95 in 6.2 mi NNE 5.8 mph - N/A   Scattered Clouds
3:25 AM 39.2 °F 35.0 °F 37.4 °F 93% 29.95 in 6.2 mi North 5.8 mph - N/A   Unknown
3:55 AM 39.2 °F 34.2 °F 37.4 °F 93% 29.95 in 6.2 mi North 6.9 mph - N/A   Unknown
4:25 AM 39.2 °F 33.6 °F 37.4 °F 93% 29.95 in 6.2 mi North 8.1 mph - N/A   Unknown
4:55 AM 39.2 °F 33.6 °F 37.4 °F 93% 29.98 in 6.2 mi North 8.1 mph - N/A   Partly Cloudy
5:25 AM 39.2 °F 34.2 °F 35.6 °F 87% 29.98 in 6.2 mi NNE 6.9 mph - N/A   Unknown
5:55 AM 39.2 °F 33.6 °F 37.4 °F 93% 29.98 in 6.2 mi North 8.1 mph - N/A   Unknown
6:25 AM 37.4 °F 32.8 °F 35.6 °F 93% 29.98 in 6.2 mi NNE 5.8 mph - N/A   Unknown
6:55 AM 39.2 °F 35.0 °F 37.4 °F 93% 29.98 in 6.2 mi NNE 5.8 mph - N/A   Partly Cloudy
7:25 AM 41.0 °F 37.1 °F 39.2 °F 93% 29.98 in 6.2 mi North 5.8 mph - N/A   Mostly Cloudy
7:55 AM 42.8 °F 38.6 °F 39.2 °F 87% 30.01 in 6.2 mi North 6.9 mph - N/A   Partly Cloudy
8:25 AM 46.4 °F 42.9 °F 41.0 °F 81% 30.01 in 6.2 mi North 6.9 mph - N/A   Partly Cloudy
8:55 AM 48.2 °F - 42.8 °F 82% 30.01 in 6.2 mi North 8.1 mph - N/A   Overcast
9:21 AM 50.0 °F - 44.6 °F 82% 30.01 in 6.2 mi North 10.4 mph - N/A   Scattered Clouds
9:25 AM 50.0 °F - 44.6 °F 82% 30.01 in 6.2 mi North 10.4 mph - N/A   Scattered Clouds
9:34 AM 50.0 °F - 42.8 °F 76% 30.01 in 6.2 mi NNW 10.4 mph - N/A   Mostly Cloudy
9:42 AM 50.0 °F - 41.0 °F 71% 30.01 in 6.2 mi North 10.4 mph - N/A   Partly Cloudy
9:55 AM 50.0 °F - 41.0 °F 71% 30.01 in 6.2 mi North 11.5 mph - N/A   Partly Cloudy
9:59 AM 50.0 °F - 41.0 °F 71% 30.01 in 6.2 mi North 11.5 mph - N/A   Scattered Clouds
10:14 AM 50.0 °F - 41.0 °F 71% 30.01 in 6.2 mi NNW 11.5 mph - N/A   Scattered Clouds
10:25 AM 51.8 °F - 42.8 °F 71% 30.01 in 6.2 mi North 9.2 mph - N/A   Mostly Cloudy
10:32 AM 51.8 °F - 42.8 °F 71% 30.01 in 6.2 mi NNW 10.4 mph - N/A   Partly Cloudy
10:37 AM 51.8 °F - 42.8 °F 71% 30.01 in 6.2 mi North 10.4 mph - N/A   Scattered Clouds
10:42 AM 51.8 °F - 41.0 °F 67% 30.01 in 6.2 mi NNW 10.4 mph - N/A   Partly Cloudy
10:55 AM 53.6 °F - 41.0 °F 62% 30.01 in 6.2 mi North 11.5 mph - N/A   Scattered Clouds
11:25 AM 53.6 °F - 39.2 °F 58% 30.01 in 6.2 mi NNW 12.7 mph - N/A   Partly Cloudy
11:55 AM 53.6 °F - 41.0 °F 62% 30.01 in 6.2 mi NW 9.2 mph - N/A   Scattered Clouds
12:25 PM 53.6 °F - 41.0 °F 62% 30.01 in 6.2 mi NW 12.7 mph - N/A   Overcast
12:55 PM 55.4 °F - 41.0 °F 58% 30.01 in 6.2 mi NW 11.5 mph - N/A   Overcast
1:25 PM 57.2 °F - 41.0 °F 55% 30.01 in 6.2 mi NNW 10.4 mph - N/A   Mostly Cloudy
1:55 PM 57.2 °F - 41.0 °F 55% 30.01 in 6.2 mi NW 13.8 mph - N/A   Mostly Cloudy
2:25 PM 57.2 °F - 41.0 °F 55% 30.01 in 6.2 mi NNW 15.0 mph - N/A   Mostly Cloudy
2:55 PM 57.2 °F - 41.0 °F 55% 30.01 in 6.2 mi NNW 17.3 mph - N/A   Overcast
3:25 PM 55.4 °F - 41.0 °F 58% 30.01 in 6.2 mi North 16.1 mph - N/A   Partly Cloudy
3:55 PM 55.4 °F - 42.8 °F 63% 30.01 in 6.2 mi NNW 12.7 mph - N/A   Mostly Cloudy
4:25 PM 55.4 °F - 41.0 °F 58% 30.01 in 6.2 mi NNW 17.3 mph - N/A   Partly Cloudy
4:55 PM 53.6 °F - 41.0 °F 62% 30.01 in 6.2 mi NNW 15.0 mph - N/A   Partly Cloudy
5:25 PM 53.6 °F - 41.0 °F 62% 30.01 in 6.2 mi NW 13.8 mph - N/A   Mostly Cloudy
5:55 PM 53.6 °F - 41.0 °F 62% 30.01 in 6.2 mi NNW 13.8 mph - N/A   Mostly Cloudy
6:25 PM 51.8 °F - 39.2 °F 62% 30.01 in 6.2 mi NW 15.0 mph - N/A   Overcast
6:55 PM 50.0 °F - 41.0 °F 71% 30.01 in 6.2 mi NW 13.8 mph - N/A   Overcast
7:20 PM 50.0 °F - 41.0 °F 71% 30.01 in 6.2 mi WNW 15.0 mph - N/A   Overcast
7:25 PM 50.0 °F - 39.2 °F 66% 30.01 in 6.2 mi WNW 16.1 mph - N/A   Overcast
7:43 PM 50.0 °F - 39.2 °F 66% 30.01 in 6.2 mi NW 13.8 mph - N/A   Overcast
7:50 PM 48.2 °F - 39.2 °F 71% 30.01 in 6.2 mi NW 13.8 mph - N/A   Overcast
7:55 PM 48.2 °F - 39.2 °F 71% 30.01 in 6.2 mi NW 13.8 mph - N/A   Overcast
8:02 PM 48.2 °F - 39.2 °F 71% 30.01 in 6.2 mi NW 12.7 mph - N/A   Overcast
8:12 PM 48.2 °F - 39.2 °F 71% 30.01 in 6.2 mi NW 11.5 mph - N/A   Overcast
8:16 PM 48.2 °F - 39.2 °F 71% 30.01 in 6.2 mi NW 12.7 mph - N/A   Overcast
8:25 PM 48.2 °F - 39.2 °F 71% 30.01 in 6.2 mi NW 11.5 mph - N/A   Overcast
8:55 PM 48.2 °F - 39.2 °F 71% 30.01 in 6.2 mi NW 13.8 mph - N/A   Overcast
9:25 PM 48.2 °F - 41.0 °F 76% 30.01 in 6.2 mi NW 12.7 mph - N/A   Overcast
9:55 PM 46.4 °F 41.5 °F 42.8 °F 87% 30.01 in 3.7 mi NW 10.4 mph - N/A   Haze
10:08 PM 46.4 °F 41.5 °F 42.8 °F 87% 30.01 in 6.2 mi NW 10.4 mph - N/A   Overcast
10:18 PM 46.4 °F 41.5 °F 42.8 °F 87% 30.01 in 3.7 mi NW 10.4 mph - N/A   Overcast
10:25 PM 46.4 °F 41.5 °F 42.8 °F 87% 30.01 in 6.2 mi NW 10.4 mph - N/A   Overcast
10:29 PM 46.4 °F 41.9 °F 42.8 °F 87% 30.01 in 3.7 mi NW 9.2 mph - N/A   Overcast
10:39 PM 46.4 °F 42.4 °F 42.8 °F 87% 30.01 in 6.2 mi NW 8.1 mph - N/A   Overcast
10:55 PM 46.4 °F 42.4 °F 42.8 °F 87% 30.01 in 6.2 mi WNW 8.1 mph - N/A   Drizzle
11:10 PM 46.4 °F 42.4 °F 42.8 °F 87% 30.01 in 6.2 mi WNW 8.1 mph - N/A   Drizzle
11:20 PM 46.4 °F 42.9 °F 44.6 °F 93% 30.01 in 6.2 mi WNW 6.9 mph - N/A Rain Light Rain
11:25 PM 46.4 °F 42.4 °F 44.6 °F 93% 30.01 in 6.2 mi WNW 8.1 mph - N/A Rain Light Rain
11:50 PM 46.4 °F 41.9 °F 44.6 °F 93% 30.01 in 6.2 mi WNW 9.2 mph - N/A Rain Light Rain
11:55 PM 46.4 °F 42.4 °F 44.6 °F 93% 30.01 in 6.2 mi WNW 8.1 mph - N/A Rain Light Rain